Regional Weather Roundup
Issued by NWS Sioux Falls, SD

Home | Current Version | Previous Version | Graphics & Text | Print | Product List | Glossary On
Versions: 1 2 3 4 5 6 7 8 9 10 11 12 13 14 15 16 17 18 19 20 21 22 23 24 25 26 27 28 29 30 31 32 33 34 35 36 37 38 39 40 41 42 43 44 45 46 47 48 49 50
000
ASUS43 KFSD 010202
RWRFSD

WEATHER ROUNDUP FOR SE SOUTH DAKOTA/SW MINNESOTA/NW IOWA
NATIONAL WEATHER SERVICE SIOUX FALLS SD
800 PM CST SAT JAN 31 2015

NOTE: "FAIR" INDICATES FEW OR NO CLOUDS BELOW 12,000 FEET WITH NO
SIGNIFICANT WEATHER AND OR OBSTRUCTIONS TO VISIBILITY.


SDZ038>040-050-052>070-010300-
SOUTHEAST SOUTH DAKOTA

CITY           SKY/WX    TMP DP  RH WIND       PRES   REMARKS
CHAMBERLAIN    NOT AVBL
HURON          CLOUDY    19  11  70 NE17G24   30.15S WCI   4
MADISON        FLURRIES  21  21 100 NE22G29   30.06S WCI   5
MITCHELL       FRZ RAIN  24  22  91 NE16      30.10S FOG     WCI  11
SIOUX FALLS    LGT SNOW  25  22  88 NE18G29   30.05S FOG     WCI  11
WINNER         LGT SNOW  20  16  84 N15       30.07R VSB 1   WCI   6
YANKTON        CLOUDY    27  25  93 NE15G21   30.02S WCI  15
$$

MNZ071-072-080-081-089-090-097-098-010300-
SOUTHWEST MINNESOTA

CITY           SKY/WX    TMP DP  RH WIND       PRES   REMARKS
FAIRMONT       CLOUDY    27  23  86 NE18      30.07F WCI  13
JACKSON        LGT SNOW  28  25  86 NE20      30.06F WCI  15
LUVERNE        LGT SNOW  28  25  86 NE16G24   30.05S WCI  17
MARSHALL       CLOUDY    25  18  74 NE13      30.15S WCI  13
MONTEVIDEO     CLOUDY    25  16  68 E9        30.19S WCI  15
PIPESTONE      LGT SNOW  23  21  93 E9        30.06S WCI  13
REDWOOD FALLS  CLOUDY    26  20  77 NE5       30.15F WCI  20
TRACY          CLOUDY    26  23  88 NE9       30.12F WCI  16
WINDOM         LGT SNOW  25  23  93 NE17      30.08F WCI  11
WORTHINGTON    CLOUDY    27  21  80 NE18      30.06F WCI  13
$$

IAZ001>003-012>014-020>022-031-032-NEZ013-014-SDZ071-010300-
NORTHWEST IOWA

CITY           SKY/WX    TMP DP  RH WIND       PRES   REMARKS
CHEROKEE       LGT SNOW  30  30 100 NE10G16   30.00F WCI  21
DENISON        LGT SNOW  32  32 100 E8        29.95F WCI  25
ESTHERVILLE    LGT SNOW  26  25  96 NE20      30.05S VSB 3/4 WCI  12
LE MARS        LGT SNOW  30  28  93 NE15      30.00F WCI  19
ORANGE CITY    LGT SNOW  28  27  93 E13G18    30.00S VSB 1   WCI  18
SIOUX CITY     LGT SNOW  32  30  92 E13       29.97F VSB 1   WCI  22
SPENCER        LGT SNOW  29  26  89 NE21      30.03F VSB 1   WCI  16
$$

ABBREVIATIONS USED IN REMARKS
   TC - TEMPERATURE IN CELSIUS
  WCI - WIND CHILL INDEX
   HX - HEAT INDEX
  VSB - VISIBILITY




USA.gov is the U.S. government's official web portal to all federal, state and local government web resources and services.